Weather in Baymakovo

Russia / Orenburg Oblast     53°35′09″N   52°23′10″E
temp.,
°C
wind,
m/s
gust,
m/s
humid.,
%
clouds,
%
prec.,
mm/h
press.,
hPa
HPBL,
m
3 march, wed
wed323:00−2sw71396100 2.1 1003615
02:00−2sw4997100 0.5 1002303
05:00−4wsw3398100 0.8 100269
08:00−3wnw2295100 0.1 100156
11:00−2w3496100 0.1 1002218
14:00−2w459699 0.1 1002427
17:00−3w5792100 0.2 1003619
20:00−6w51093100 0.2 1003335
4 march, thu
thu423:00−6w6129594 0.3 1005448
02:00−8wnw4993100 0.1 1006296
05:00−8w5995100 0.1 1007304
08:00−14sw499891 0.0 1007144
11:00−9sw7139494 0.1 1007361
14:00−6sw81392100 0.2 1004540
17:00−5sw91592100 0.3 1002833
20:00−1sw101794100 1.4 1000942
5 march, fri
fri523:000wsw101596100 1.8 1001943
02:000wsw81398100 0.8 1002799
05:000wsw71397100 2.1 1002750
08:00−2sw71396100 1.5 1002612
11:00−1sw71297100 3.3 1001695
14:000sw611100100 1.1 1000661
17:00+1wsw71499100 4.3 1001636
20:00−3nnw61095100 1.6 1004541
6 march, sat
sat623:00−9nw499295 1.6 1009238
02:00−16nw239115 0.0 101320
05:00−18nnw119051 0.0 101520
08:00−17ene1188100 0.0 101520
11:00−13e2384100 0.0 1015154
14:00−10e3585100 0.0 1012256
17:00−8e2487100 0.0 1010344
20:00−10n2292100 0.1 100923
7 march, sun
sun723:00−14nw129195 0.1 101021
02:00−16w339219 0.0 101021
05:00−16w349835 0.0 101162
08:00−17w4898100 0.1 1012166
11:00−15wnw4895100 0.1 1014273
14:00−13w469076 0.0 1015422
17:00−13sw469171 0.0 1015336
20:00−16ssw47943 0.0 1014109